• Join FlightAware (Why Join?)
  • Login
  • US Flag 
06:40PM EDT


 

Airport Tracker/Info


-or-


 

Live Flight TrackerFlight Track Log ✈ FLG3667 ✈ 06-May-2013 ✈ KGRR - KDTW

Flight Track Log - Related Links

Times and Time Zones

All times are in EDT time to prevent confusion due to time zone crossing. See the FLG3667 flight status page for this flight to view local times or setup timezone preferences in your user account.

Time Position Orientation Groundspeed Altitude Reporting Facility
EDT Latitude Longitude Course Direction KTS MPH feet Rate Location/Type
05:42PM 42.9311 -85.3169 68° East 250 288 6,400  Level Chicago Center
05:43PM 42.8494 -85.2917 62° Northeast  Level FlightAware Approximate
05:43PM 42.9586 -85.2181 69° East 273 314 9,300  Level Chicago Center
05:44PM 42.8777 -85.2181 62° Northeast  Level FlightAware Approximate
05:44PM 42.9872 -85.1144 69° East 289 333 11,000  Level Chicago Center
05:45PM 42.9060 -85.1444 62° Northeast  Level FlightAware Approximate
05:46PM 42.9359 -85.0719 60° Northeast  Level FlightAware Approximate
05:46PM 43.0414 -84.9186 69° East 301 346 11,300  Level Cleveland Center
05:46PM 43.0536 -84.8783 67° East 292 336 12,000 240 Climbing Chicago Center
05:48PM 43.1114 -84.6672 69° East 296 341 12,000  Level Chicago Center
05:49PM 43.1383 -84.5614 71° East 295 339 12,000  Level Chicago Center
05:50PM 43.1642 -84.4467 73° East 309 356 12,000  Level Chicago Center
05:51PM 43.1797 -84.3700 74° East 315 362 12,000  Level Cleveland Center
05:52PM 43.2064 -84.2519 73° East 323 372 12,000  Level Cleveland Center
05:53PM 43.1933 -84.1372 99° East 320 368 12,000  Level Cleveland Center
05:54PM 43.0872 -83.9786 132° Southeast 352 405 12,000  Level Chicago Center
05:56PM 42.9764 -83.8636 143° Southeast 341 392 12,000  Level Cleveland Center
05:58PM 42.8133 -83.7222 148° Southeast 353 406 12,000  Level Cleveland Center
05:59PM 42.7211 -83.6694 157° South 352 405 12,000  Level Cleveland Center
06:00PM 42.6328 -83.6172 156° South 353 406 12,000  Level Cleveland Center
06:02PM 42.4664 -83.5189 156° South 331 381 12,000  Level Cleveland Center
06:03PM 42.3967 -83.4819 159° South 300 345 12,000 -840 Level Cleveland Center
06:05PM 42.2839 -83.4088 151° Southeast  Level FlightAware Approximate
06:05PM 42.2467 -83.4722 151° Southeast 246 283 9,300  Level Cleveland Center
06:06PM 42.1933 -83.5203 214° Southwest 241 277 7,900 -1,500 Descending Cleveland Center
06:07PM 42.1336 -83.5736 214° Southwest 243 280 6,200 -1,320 Descending Cleveland Center
06:09PM 42.0642 -83.5200 150° Southeast 219 252 3,700 -1,080 Descending Cleveland Center
06:11PM 42.1456 -83.4286 40° Northeast 143 165 2,000 -840 Descending Cleveland Center
06:12PM 42.1817 -83.4022 28° Northeast 146 168 1,200 -840 Descending Cleveland Center